owner,sensor,date,latitude,longitude,air_temperature,qcFlag 
COMPS,ioos:station:USF.COMPS:ANC:1,2011-12-01T00:00:00Z,28.1930,-82.7890,14.6,1111122 
COMPS,ioos:station:USF.COMPS:ANC:1,2011-12-01T00:06:00Z,28.1930,-82.7890,14.46,1111122 
COMPS,ioos:station:USF.COMPS:ANC:1,2011-12-01T00:12:00Z,28.1930,-82.7890,14.56,1111122 
COMPS,ioos:station:USF.COMPS:ANC:1,2011-12-01T00:18:00Z,28.1930,-82.7890,14.55,1111122 
COMPS,ioos:station:USF.COMPS:ANC:1,2011-12-01T00:24:00Z,28.1930,-82.7890,14.58,1111122 
COMPS,ioos:station:USF.COMPS:ANC:1,2011-12-01T00:30:00Z,28.1930,-82.7890,14.53,1111122 
COMPS,ioos:station:USF.COMPS:ANC:1,2011-12-01T00:36:00Z,28.1930,-82.7890,14.65,1111122 
COMPS,ioos:station:USF.COMPS:ANC:1,2011-12-01T00:42:00Z,28.1930,-82.7890,14.57,1111122 
COMPS,ioos:station:USF.COMPS:ANC:1,2011-12-01T00:48:00Z,28.1930,-82.7890,14.65,1111122 
COMPS,ioos:station:USF.COMPS:ANC:1,2011-12-01T00:54:00Z,28.1930,-82.7890,14.55,1111122 
COMPS,ioos:station:USF.COMPS:ANC:1,2011-12-01T01:00:00Z,28.1930,-82.7890,14.6,1111122 
COMPS,ioos:station:USF.COMPS:ANC:1,2011-12-01T01:06:00Z,28.1930,-82.7890,14.38,1111122 
COMPS,ioos:station:USF.COMPS:ANC:1,2011-12-01T01:12:00Z,28.1930,-82.7890,14.34,1111122 
COMPS,ioos:station:USF.COMPS:ANC:1,2011-12-01T01:18:00Z,28.1930,-82.7890,14.39,1111122 
COMPS,ioos:station:USF.COMPS:ANC:1,2011-12-01T01:24:00Z,28.1930,-82.7890,14.33,1111122 
COMPS,ioos:station:USF.COMPS:ANC:1,2011-12-01T01:30:00Z,28.1930,-82.7890,14.25,1111122 
COMPS,ioos:station:USF.COMPS:ANC:1,2011-12-01T01:36:00Z,28.1930,-82.7890,14.21,1111122 
COMPS,ioos:station:USF.COMPS:ANC:1,2011-12-01T01:42:00Z,28.1930,-82.7890,14.28,1111122 
COMPS,ioos:station:USF.COMPS:ANC:1,2011-12-01T01:48:00Z,28.1930,-82.7890,14.26,1111122 
COMPS,ioos:station:USF.COMPS:ANC:1,2011-12-01T01:54:00Z,28.1930,-82.7890,14.28,1111122 
COMPS,ioos:station:USF.COMPS:ANC:1,2011-12-01T02:00:00Z,28.1930,-82.7890,14.3,1111122 
COMPS,ioos:station:USF.COMPS:ANC:1,2011-12-01T02:06:00Z,28.1930,-82.7890,14.22,1111122 
COMPS,ioos:station:USF.COMPS:ANC:1,2011-12-01T02:12:00Z,28.1930,-82.7890,14.21,1111122 
COMPS,ioos:station:USF.COMPS:ANC:1,2011-12-01T02:18:00Z,28.1930,-82.7890,14.34,1111122 
COMPS,ioos:station:USF.COMPS:ANC:1,2011-12-01T02:24:00Z,28.1930,-82.7890,14.34,1111122 
COMPS,ioos:station:USF.COMPS:ANC:1,2011-12-01T02:30:00Z,28.1930,-82.7890,14.31,1111122 
COMPS,ioos:station:USF.COMPS:ANC:1,2011-12-01T02:36:00Z,28.1930,-82.7890,14.3,1111122 
COMPS,ioos:station:USF.COMPS:ANC:1,2011-12-01T02:42:00Z,28.1930,-82.7890,14.32,1111122 
COMPS,ioos:station:USF.COMPS:ANC:1,2011-12-01T02:48:00Z,28.1930,-82.7890,14.42,1111122 
COMPS,ioos:station:USF.COMPS:ANC:1,2011-12-01T02:54:00Z,28.1930,-82.7890,14.23,1111122 
COMPS,ioos:station:USF.COMPS:ANC:1,2011-12-01T03:00:00Z,28.1930,-82.7890,14.2,1111122 
COMPS,ioos:station:USF.COMPS:ANC:1,2011-12-01T03:06:00Z,28.1930,-82.7890,14.34,1111122 
COMPS,ioos:station:USF.COMPS:ANC:1,2011-12-01T03:12:00Z,28.1930,-82.7890,14.33,1111122 
COMPS,ioos:station:USF.COMPS:ANC:1,2011-12-01T03:18:00Z,28.1930,-82.7890,14.23,1111122 
COMPS,ioos:station:USF.COMPS:ANC:1,2011-12-01T03:24:00Z,28.1930,-82.7890,14.09,1111122 
COMPS,ioos:station:USF.COMPS:ANC:1,2011-12-01T03:30:00Z,28.1930,-82.7890,14.27,1111122 
COMPS,ioos:station:USF.COMPS:ANC:1,2011-12-01T03:36:00Z,28.1930,-82.7890,14.14,1111122 
COMPS,ioos:station:USF.COMPS:ANC:1,2011-12-01T03:42:00Z,28.1930,-82.7890,14.22,1111122 
COMPS,ioos:station:USF.COMPS:ANC:1,2011-12-01T03:48:00Z,28.1930,-82.7890,14.2,1111122 
COMPS,ioos:station:USF.COMPS:ANC:1,2011-12-01T03:54:00Z,28.1930,-82.7890,14.17,1111122 
COMPS,ioos:station:USF.COMPS:ANC:1,2011-12-01T04:00:00Z,28.1930,-82.7890,14.2,1111122 
COMPS,ioos:station:USF.COMPS:ANC:1,2011-12-01T04:06:00Z,28.1930,-82.7890,14.07,1111122 
COMPS,ioos:station:USF.COMPS:ANC:1,2011-12-01T04:12:00Z,28.1930,-82.7890,13.92,1111122 
COMPS,ioos:station:USF.COMPS:ANC:1,2011-12-01T04:18:00Z,28.1930,-82.7890,13.91,1111122 
COMPS,ioos:station:USF.COMPS:ANC:1,2011-12-01T04:24:00Z,28.1930,-82.7890,13.91,1111122 
COMPS,ioos:station:USF.COMPS:ANC:1,2011-12-01T04:30:00Z,28.1930,-82.7890,13.82,1111122 
COMPS,ioos:station:USF.COMPS:ANC:1,2011-12-01T04:36:00Z,28.1930,-82.7890,13.76,1111122 
COMPS,ioos:station:USF.COMPS:ANC:1,2011-12-01T04:42:00Z,28.1930,-82.7890,13.64,1111122 
COMPS,ioos:station:USF.COMPS:ANC:1,2011-12-01T04:48:00Z,28.1930,-82.7890,13.65,1111122 
COMPS,ioos:station:USF.COMPS:ANC:1,2011-12-01T04:54:00Z,28.1930,-82.7890,13.52,1111122 
COMPS,ioos:station:USF.COMPS:ANC:1,2011-12-01T05:00:00Z,28.1930,-82.7890,13.5,1111122 
COMPS,ioos:station:USF.COMPS:ANC:1,2011-12-01T05:06:00Z,28.1930,-82.7890,12.56,1111122 
COMPS,ioos:station:USF.COMPS:ANC:1,2011-12-01T05:12:00Z,28.1930,-82.7890,12.45,1111122 
COMPS,ioos:station:USF.COMPS:ANC:1,2011-12-01T05:18:00Z,28.1930,-82.7890,12.39,1111122 
COMPS,ioos:station:USF.COMPS:ANC:1,2011-12-01T05:24:00Z,28.1930,-82.7890,12.56,1111122 
COMPS,ioos:station:USF.COMPS:ANC:1,2011-12-01T05:30:00Z,28.1930,-82.7890,12.5,1111122 
COMPS,ioos:station:USF.COMPS:ANC:1,2011-12-01T05:36:00Z,28.1930,-82.7890,12.38,1111122 
COMPS,ioos:station:USF.COMPS:ANC:1,2011-12-01T05:42:00Z,28.1930,-82.7890,12.56,1111122 
COMPS,ioos:station:USF.COMPS:ANC:1,2011-12-01T05:48:00Z,28.1930,-82.7890,12.78,1111122 
COMPS,ioos:station:USF.COMPS:ANC:1,2011-12-01T05:54:00Z,28.1930,-82.7890,12.48,1111122 
COMPS,ioos:station:USF.COMPS:ANC:1,2011-12-01T06:00:00Z,28.1930,-82.7890,12.5,1111122 
COMPS,ioos:station:USF.COMPS:ANC:1,2011-12-01T06:06:00Z,28.1930,-82.7890,11.71,1111122 
COMPS,ioos:station:USF.COMPS:ANC:1,2011-12-01T06:12:00Z,28.1930,-82.7890,11.54,1111122 
COMPS,ioos:station:USF.COMPS:ANC:1,2011-12-01T06:18:00Z,28.1930,-82.7890,11.42,1111122 
COMPS,ioos:station:USF.COMPS:ANC:1,2011-12-01T06:24:00Z,28.1930,-82.7890,11.35,1111122 
COMPS,ioos:station:USF.COMPS:ANC:1,2011-12-01T06:30:00Z,28.1930,-82.7890,11.32,1111122 
COMPS,ioos:station:USF.COMPS:ANC:1,2011-12-01T06:36:00Z,28.1930,-82.7890,11.23,1111122 
COMPS,ioos:station:USF.COMPS:ANC:1,2011-12-01T06:42:00Z,28.1930,-82.7890,11.21,1111122 
COMPS,ioos:station:USF.COMPS:ANC:1,2011-12-01T06:48:00Z,28.1930,-82.7890,11.13,1111122 
COMPS,ioos:station:USF.COMPS:ANC:1,2011-12-01T06:54:00Z,28.1930,-82.7890,11.09,1111122 
COMPS,ioos:station:USF.COMPS:ANC:1,2011-12-01T07:00:00Z,28.1930,-82.7890,11.1,1111122 
COMPS,ioos:station:USF.COMPS:ANC:1,2011-12-01T07:06:00Z,28.1930,-82.7890,11.27,1111122 
COMPS,ioos:station:USF.COMPS:ANC:1,2011-12-01T07:12:00Z,28.1930,-82.7890,11.35,1111122 
COMPS,ioos:station:USF.COMPS:ANC:1,2011-12-01T07:18:00Z,28.1930,-82.7890,11.36,1111122 
COMPS,ioos:station:USF.COMPS:ANC:1,2011-12-01T07:24:00Z,28.1930,-82.7890,11.35,1111122 
COMPS,ioos:station:USF.COMPS:ANC:1,2011-12-01T07:30:00Z,28.1930,-82.7890,11.35,1111122 
COMPS,ioos:station:USF.COMPS:ANC:1,2011-12-01T07:36:00Z,28.1930,-82.7890,11.38,1111122 
COMPS,ioos:station:USF.COMPS:ANC:1,2011-12-01T07:42:00Z,28.1930,-82.7890,11.34,1111122 
COMPS,ioos:station:USF.COMPS:ANC:1,2011-12-01T07:48:00Z,28.1930,-82.7890,10.97,1111122 
COMPS,ioos:station:USF.COMPS:ANC:1,2011-12-01T07:54:00Z,28.1930,-82.7890,10.46,1111122 
COMPS,ioos:station:USF.COMPS:ANC:1,2011-12-01T08:00:00Z,28.1930,-82.7890,10.5,1111122 
COMPS,ioos:station:USF.COMPS:ANC:1,2011-12-01T08:06:00Z,28.1930,-82.7890,10.03,1111122 
COMPS,ioos:station:USF.COMPS:ANC:1,2011-12-01T08:12:00Z,28.1930,-82.7890,10.06,1111122 
COMPS,ioos:station:USF.COMPS:ANC:1,2011-12-01T08:18:00Z,28.1930,-82.7890,10.19,1111122 
COMPS,ioos:station:USF.COMPS:ANC:1,2011-12-01T08:24:00Z,28.1930,-82.7890,10.33,1111122 
COMPS,ioos:station:USF.COMPS:ANC:1,2011-12-01T08:30:00Z,28.1930,-82.7890,10.3,1111122 
COMPS,ioos:station:USF.COMPS:ANC:1,2011-12-01T08:36:00Z,28.1930,-82.7890,10.16,1111122 
COMPS,ioos:station:USF.COMPS:ANC:1,2011-12-01T08:42:00Z,28.1930,-82.7890,9.95,1111122 
COMPS,ioos:station:USF.COMPS:ANC:1,2011-12-01T08:48:00Z,28.1930,-82.7890,9.78,1111122 
COMPS,ioos:station:USF.COMPS:ANC:1,2011-12-01T08:54:00Z,28.1930,-82.7890,9.72,1111122 
COMPS,ioos:station:USF.COMPS:ANC:1,2011-12-01T09:00:00Z,28.1930,-82.7890,9.7,1111122 
COMPS,ioos:station:USF.COMPS:ANC:1,2011-12-01T09:06:00Z,28.1930,-82.7890,9.54,1111122 
COMPS,ioos:station:USF.COMPS:ANC:1,2011-12-01T09:12:00Z,28.1930,-82.7890,9.14,1111122 
COMPS,ioos:station:USF.COMPS:ANC:1,2011-12-01T09:18:00Z,28.1930,-82.7890,8.93,1111122 
COMPS,ioos:station:USF.COMPS:ANC:1,2011-12-01T09:24:00Z,28.1930,-82.7890,8.66,1111122 
COMPS,ioos:station:USF.COMPS:ANC:1,2011-12-01T09:30:00Z,28.1930,-82.7890,8.52,1111122 
COMPS,ioos:station:USF.COMPS:ANC:1,2011-12-01T09:36:00Z,28.1930,-82.7890,8.32,1111122 
COMPS,ioos:station:USF.COMPS:ANC:1,2011-12-01T09:42:00Z,28.1930,-82.7890,8.24,1111122 
COMPS,ioos:station:USF.COMPS:ANC:1,2011-12-01T09:48:00Z,28.1930,-82.7890,8.01,1111122 
COMPS,ioos:station:USF.COMPS:ANC:1,2011-12-01T09:54:00Z,28.1930,-82.7890,8.0,1111122 
COMPS,ioos:station:USF.COMPS:ANC:1,2011-12-01T10:00:00Z,28.1930,-82.7890,8.0,1111122 
COMPS,ioos:station:USF.COMPS:ANC:1,2011-12-01T10:06:00Z,28.1930,-82.7890,7.74,1111122 
COMPS,ioos:station:USF.COMPS:ANC:1,2011-12-01T10:12:00Z,28.1930,-82.7890,7.68,1111122 
COMPS,ioos:station:USF.COMPS:ANC:1,2011-12-01T10:18:00Z,28.1930,-82.7890,7.69,1111122 
COMPS,ioos:station:USF.COMPS:ANC:1,2011-12-01T10:24:00Z,28.1930,-82.7890,7.6,1111122 
COMPS,ioos:station:USF.COMPS:ANC:1,2011-12-01T10:30:00Z,28.1930,-82.7890,7.56,1111122 
COMPS,ioos:station:USF.COMPS:ANC:1,2011-12-01T10:36:00Z,28.1930,-82.7890,7.56,1111122 
COMPS,ioos:station:USF.COMPS:ANC:1,2011-12-01T10:42:00Z,28.1930,-82.7890,7.58,1111122 
COMPS,ioos:station:USF.COMPS:ANC:1,2011-12-01T10:48:00Z,28.1930,-82.7890,7.6,1111122 
COMPS,ioos:station:USF.COMPS:ANC:1,2011-12-01T10:54:00Z,28.1930,-82.7890,7.56,1111122 
COMPS,ioos:station:USF.COMPS:ANC:1,2011-12-01T11:00:00Z,28.1930,-82.7890,7.6,1111122 
COMPS,ioos:station:USF.COMPS:ANC:1,2011-12-01T12:00:00Z,28.1930,-82.7890,6.6,1111122 
COMPS,ioos:station:USF.COMPS:ANC:1,2011-12-01T12:06:00Z,28.1930,-82.7890,6.9,1111122 
COMPS,ioos:station:USF.COMPS:ANC:1,2011-12-01T12:12:00Z,28.1930,-82.7890,6.5,1111122 
COMPS,ioos:station:USF.COMPS:ANC:1,2011-12-01T12:18:00Z,28.1930,-82.7890,6.43,1111122 
COMPS,ioos:station:USF.COMPS:ANC:1,2011-12-01T12:24:00Z,28.1930,-82.7890,6.35,1111122 
COMPS,ioos:station:USF.COMPS:ANC:1,2011-12-01T12:30:00Z,28.1930,-82.7890,6.3,1111122 
COMPS,ioos:station:USF.COMPS:ANC:1,2011-12-01T12:36:00Z,28.1930,-82.7890,6.58,1111122 
COMPS,ioos:station:USF.COMPS:ANC:1,2011-12-01T12:42:00Z,28.1930,-82.7890,7.1,1111122 
COMPS,ioos:station:USF.COMPS:ANC:1,2011-12-01T12:48:00Z,28.1930,-82.7890,7.26,1111122 
COMPS,ioos:station:USF.COMPS:ANC:1,2011-12-01T12:54:00Z,28.1930,-82.7890,7.42,1111122 
COMPS,ioos:station:USF.COMPS:ANC:1,2011-12-01T13:00:00Z,28.1930,-82.7890,7.4,1111122 
COMPS,ioos:station:USF.COMPS:ANC:1,2011-12-01T13:06:00Z,28.1930,-82.7890,7.7,1111122 
COMPS,ioos:station:USF.COMPS:ANC:1,2011-12-01T13:12:00Z,28.1930,-82.7890,7.67,1111122 
COMPS,ioos:station:USF.COMPS:ANC:1,2011-12-01T13:18:00Z,28.1930,-82.7890,7.68,1111122 
COMPS,ioos:station:USF.COMPS:ANC:1,2011-12-01T13:24:00Z,28.1930,-82.7890,7.79,1111122 
COMPS,ioos:station:USF.COMPS:ANC:1,2011-12-01T13:30:00Z,28.1930,-82.7890,8.03,1111122 
COMPS,ioos:station:USF.COMPS:ANC:1,2011-12-01T13:36:00Z,28.1930,-82.7890,8.2,1111122 
COMPS,ioos:station:USF.COMPS:ANC:1,2011-12-01T13:42:00Z,28.1930,-82.7890,8.36,1111122 
COMPS,ioos:station:USF.COMPS:ANC:1,2011-12-01T13:48:00Z,28.1930,-82.7890,8.42,1111122 
COMPS,ioos:station:USF.COMPS:ANC:1,2011-12-01T13:54:00Z,28.1930,-82.7890,8.6,1111122 
COMPS,ioos:station:USF.COMPS:ANC:1,2011-12-01T14:00:00Z,28.1930,-82.7890,8.6,1111122 
COMPS,ioos:station:USF.COMPS:ANC:1,2011-12-01T14:06:00Z,28.1930,-82.7890,9.11,1111122 
COMPS,ioos:station:USF.COMPS:ANC:1,2011-12-01T14:12:00Z,28.1930,-82.7890,9.45,1111122 
COMPS,ioos:station:USF.COMPS:ANC:1,2011-12-01T14:18:00Z,28.1930,-82.7890,9.78,1111122 
COMPS,ioos:station:USF.COMPS:ANC:1,2011-12-01T14:24:00Z,28.1930,-82.7890,9.99,1111122 
COMPS,ioos:station:USF.COMPS:ANC:1,2011-12-01T14:30:00Z,28.1930,-82.7890,10.24,1111122 
COMPS,ioos:station:USF.COMPS:ANC:1,2011-12-01T14:36:00Z,28.1930,-82.7890,10.5,1111122 
COMPS,ioos:station:USF.COMPS:ANC:1,2011-12-01T14:42:00Z,28.1930,-82.7890,10.61,1111122 
COMPS,ioos:station:USF.COMPS:ANC:1,2011-12-01T14:48:00Z,28.1930,-82.7890,10.58,1111122 
COMPS,ioos:station:USF.COMPS:ANC:1,2011-12-01T14:54:00Z,28.1930,-82.7890,10.66,1111122 
COMPS,ioos:station:USF.COMPS:ANC:1,2011-12-01T15:00:00Z,28.1930,-82.7890,10.7,1111122 
COMPS,ioos:station:USF.COMPS:ANC:1,2011-12-01T15:06:00Z,28.1930,-82.7890,10.85,1111122 
COMPS,ioos:station:USF.COMPS:ANC:1,2011-12-01T15:12:00Z,28.1930,-82.7890,10.87,1111122 
COMPS,ioos:station:USF.COMPS:ANC:1,2011-12-01T15:18:00Z,28.1930,-82.7890,10.9,1111122 
COMPS,ioos:station:USF.COMPS:ANC:1,2011-12-01T15:24:00Z,28.1930,-82.7890,11.07,1111122 
COMPS,ioos:station:USF.COMPS:ANC:1,2011-12-01T15:30:00Z,28.1930,-82.7890,11.15,1111122 
COMPS,ioos:station:USF.COMPS:ANC:1,2011-12-01T15:36:00Z,28.1930,-82.7890,11.22,1111122 
COMPS,ioos:station:USF.COMPS:ANC:1,2011-12-01T15:42:00Z,28.1930,-82.7890,11.28,1111122 
COMPS,ioos:station:USF.COMPS:ANC:1,2011-12-01T15:48:00Z,28.1930,-82.7890,11.35,1111122 
COMPS,ioos:station:USF.COMPS:ANC:1,2011-12-01T15:54:00Z,28.1930,-82.7890,11.42,1111122 
COMPS,ioos:station:USF.COMPS:ANC:1,2011-12-01T16:00:00Z,28.1930,-82.7890,11.4,1111122 
COMPS,ioos:station:USF.COMPS:ANC:1,2011-12-01T16:06:00Z,28.1930,-82.7890,11.45,1111122 
COMPS,ioos:station:USF.COMPS:ANC:1,2011-12-01T16:12:00Z,28.1930,-82.7890,11.58,1111122 
COMPS,ioos:station:USF.COMPS:ANC:1,2011-12-01T16:18:00Z,28.1930,-82.7890,11.67,1111122 
COMPS,ioos:station:USF.COMPS:ANC:1,2011-12-01T16:24:00Z,28.1930,-82.7890,11.72,1111122 
COMPS,ioos:station:USF.COMPS:ANC:1,2011-12-01T16:30:00Z,28.1930,-82.7890,11.79,1111122 
COMPS,ioos:station:USF.COMPS:ANC:1,2011-12-01T16:36:00Z,28.1930,-82.7890,11.91,1111122 
COMPS,ioos:station:USF.COMPS:ANC:1,2011-12-01T16:42:00Z,28.1930,-82.7890,11.97,1111122 
COMPS,ioos:station:USF.COMPS:ANC:1,2011-12-01T16:48:00Z,28.1930,-82.7890,11.94,1111122 
COMPS,ioos:station:USF.COMPS:ANC:1,2011-12-01T16:54:00Z,28.1930,-82.7890,12.19,1111122 
COMPS,ioos:station:USF.COMPS:ANC:1,2011-12-01T17:00:00Z,28.1930,-82.7890,12.2,1111122 
COMPS,ioos:station:USF.COMPS:ANC:1,2011-12-01T17:06:00Z,28.1930,-82.7890,12.34,1111122 
COMPS,ioos:station:USF.COMPS:ANC:1,2011-12-01T17:12:00Z,28.1930,-82.7890,12.42,1111122 
COMPS,ioos:station:USF.COMPS:ANC:1,2011-12-01T17:18:00Z,28.1930,-82.7890,12.53,1111122 
COMPS,ioos:station:USF.COMPS:ANC:1,2011-12-01T17:24:00Z,28.1930,-82.7890,12.65,1111122 
COMPS,ioos:station:USF.COMPS:ANC:1,2011-12-01T17:30:00Z,28.1930,-82.7890,12.73,1111122 
COMPS,ioos:station:USF.COMPS:ANC:1,2011-12-01T17:36:00Z,28.1930,-82.7890,12.81,1111122 
COMPS,ioos:station:USF.COMPS:ANC:1,2011-12-01T17:42:00Z,28.1930,-82.7890,12.92,1111122 
COMPS,ioos:station:USF.COMPS:ANC:1,2011-12-01T17:48:00Z,28.1930,-82.7890,12.98,1111122 
COMPS,ioos:station:USF.COMPS:ANC:1,2011-12-01T17:54:00Z,28.1930,-82.7890,13.16,1111122 
COMPS,ioos:station:USF.COMPS:ANC:1,2011-12-01T18:00:00Z,28.1930,-82.7890,13.2,1111122 
COMPS,ioos:station:USF.COMPS:ANC:1,2011-12-01T18:06:00Z,28.1930,-82.7890,13.24,1111122 
COMPS,ioos:station:USF.COMPS:ANC:1,2011-12-01T18:12:00Z,28.1930,-82.7890,13.24,1111122 
COMPS,ioos:station:USF.COMPS:ANC:1,2011-12-01T18:18:00Z,28.1930,-82.7890,13.23,1111122 
COMPS,ioos:station:USF.COMPS:ANC:1,2011-12-01T18:24:00Z,28.1930,-82.7890,13.33,1111122 
COMPS,ioos:station:USF.COMPS:ANC:1,2011-12-01T18:30:00Z,28.1930,-82.7890,13.39,1111122 
COMPS,ioos:station:USF.COMPS:ANC:1,2011-12-01T18:36:00Z,28.1930,-82.7890,13.54,1111122 
COMPS,ioos:station:USF.COMPS:ANC:1,2011-12-01T18:42:00Z,28.1930,-82.7890,13.64,1111122 
COMPS,ioos:station:USF.COMPS:ANC:1,2011-12-01T18:48:00Z,28.1930,-82.7890,13.81,1111122 
COMPS,ioos:station:USF.COMPS:ANC:1,2011-12-01T18:54:00Z,28.1930,-82.7890,13.71,1111122 
COMPS,ioos:station:USF.COMPS:ANC:1,2011-12-01T19:00:00Z,28.1930,-82.7890,13.7,1111122 
COMPS,ioos:station:USF.COMPS:ANC:1,2011-12-01T19:06:00Z,28.1930,-82.7890,13.92,1111122 
COMPS,ioos:station:USF.COMPS:ANC:1,2011-12-01T19:12:00Z,28.1930,-82.7890,14.04,1111122 
COMPS,ioos:station:USF.COMPS:ANC:1,2011-12-01T19:18:00Z,28.1930,-82.7890,14.09,1111122 
COMPS,ioos:station:USF.COMPS:ANC:1,2011-12-01T19:24:00Z,28.1930,-82.7890,14.13,1111122 
COMPS,ioos:station:USF.COMPS:ANC:1,2011-12-01T19:30:00Z,28.1930,-82.7890,14.3,1111122 
COMPS,ioos:station:USF.COMPS:ANC:1,2011-12-01T19:36:00Z,28.1930,-82.7890,14.46,1111122 
COMPS,ioos:station:USF.COMPS:ANC:1,2011-12-01T19:42:00Z,28.1930,-82.7890,14.41,1111122 
COMPS,ioos:station:USF.COMPS:ANC:1,2011-12-01T19:48:00Z,28.1930,-82.7890,14.48,1111122 
COMPS,ioos:station:USF.COMPS:ANC:1,2011-12-01T19:54:00Z,28.1930,-82.7890,14.57,1111122 
COMPS,ioos:station:USF.COMPS:ANC:1,2011-12-01T20:00:00Z,28.1930,-82.7890,14.6,1111122 
COMPS,ioos:station:USF.COMPS:ANC:1,2011-12-01T20:06:00Z,28.1930,-82.7890,14.86,1111122 
COMPS,ioos:station:USF.COMPS:ANC:1,2011-12-01T20:12:00Z,28.1930,-82.7890,14.86,1111122 
COMPS,ioos:station:USF.COMPS:ANC:1,2011-12-01T20:18:00Z,28.1930,-82.7890,14.92,1111122 
COMPS,ioos:station:USF.COMPS:ANC:1,2011-12-01T20:24:00Z,28.1930,-82.7890,15.02,1111122 
COMPS,ioos:station:USF.COMPS:ANC:1,2011-12-01T20:30:00Z,28.1930,-82.7890,15.15,1111122 
COMPS,ioos:station:USF.COMPS:ANC:1,2011-12-01T20:36:00Z,28.1930,-82.7890,15.13,1111122 
COMPS,ioos:station:USF.COMPS:ANC:1,2011-12-01T20:42:00Z,28.1930,-82.7890,15.27,1111122 
COMPS,ioos:station:USF.COMPS:ANC:1,2011-12-01T20:48:00Z,28.1930,-82.7890,15.36,1111122 
COMPS,ioos:station:USF.COMPS:ANC:1,2011-12-01T20:54:00Z,28.1930,-82.7890,15.45,1111122 
COMPS,ioos:station:USF.COMPS:ANC:1,2011-12-01T21:00:00Z,28.1930,-82.7890,15.5,1111122 
COMPS,ioos:station:USF.COMPS:ANC:1,2011-12-01T21:06:00Z,28.1930,-82.7890,15.58,1111122 
COMPS,ioos:station:USF.COMPS:ANC:1,2011-12-01T21:12:00Z,28.1930,-82.7890,15.72,1111122 
COMPS,ioos:station:USF.COMPS:ANC:1,2011-12-01T21:18:00Z,28.1930,-82.7890,15.79,1111122 
COMPS,ioos:station:USF.COMPS:ANC:1,2011-12-01T21:24:00Z,28.1930,-82.7890,15.85,1111122 
COMPS,ioos:station:USF.COMPS:ANC:1,2011-12-01T21:30:00Z,28.1930,-82.7890,15.91,1111122 
COMPS,ioos:station:USF.COMPS:ANC:1,2011-12-01T21:36:00Z,28.1930,-82.7890,15.96,1111122 
COMPS,ioos:station:USF.COMPS:ANC:1,2011-12-01T21:42:00Z,28.1930,-82.7890,16.06,1111122 
COMPS,ioos:station:USF.COMPS:ANC:1,2011-12-01T21:48:00Z,28.1930,-82.7890,16.18,1111122 
COMPS,ioos:station:USF.COMPS:ANC:1,2011-12-01T21:54:00Z,28.1930,-82.7890,16.15,1111122 
COMPS,ioos:station:USF.COMPS:ANC:1,2011-12-01T22:00:00Z,28.1930,-82.7890,16.2,1111122 
COMPS,ioos:station:USF.COMPS:ANC:1,2011-12-01T22:06:00Z,28.1930,-82.7890,16.15,1111122 
COMPS,ioos:station:USF.COMPS:ANC:1,2011-12-01T22:12:00Z,28.1930,-82.7890,16.26,1111122 
COMPS,ioos:station:USF.COMPS:ANC:1,2011-12-01T22:18:00Z,28.1930,-82.7890,16.32,1111122 
COMPS,ioos:station:USF.COMPS:ANC:1,2011-12-01T22:24:00Z,28.1930,-82.7890,16.43,1111122 
COMPS,ioos:station:USF.COMPS:ANC:1,2011-12-01T22:30:00Z,28.1930,-82.7890,16.48,1111122 
COMPS,ioos:station:USF.COMPS:ANC:1,2011-12-01T22:36:00Z,28.1930,-82.7890,16.48,1111122 
COMPS,ioos:station:USF.COMPS:ANC:1,2011-12-01T22:42:00Z,28.1930,-82.7890,16.47,1111122 
COMPS,ioos:station:USF.COMPS:ANC:1,2011-12-01T22:48:00Z,28.1930,-82.7890,16.46,1111122 
COMPS,ioos:station:USF.COMPS:ANC:1,2011-12-01T22:54:00Z,28.1930,-82.7890,16.47,1111122 
COMPS,ioos:station:USF.COMPS:ANC:1,2011-12-01T23:00:00Z,28.1930,-82.7890,16.5,1111122 
COMPS,ioos:station:USF.COMPS:ANC:1,2011-12-01T23:06:00Z,28.1930,-82.7890,16.48,1111122 
COMPS,ioos:station:USF.COMPS:ANC:1,2011-12-01T23:12:00Z,28.1930,-82.7890,16.45,1111122 
COMPS,ioos:station:USF.COMPS:ANC:1,2011-12-01T23:18:00Z,28.1930,-82.7890,16.47,1111122 
COMPS,ioos:station:USF.COMPS:ANC:1,2011-12-01T23:24:00Z,28.1930,-82.7890,16.48,1111122 
COMPS,ioos:station:USF.COMPS:ANC:1,2011-12-01T23:30:00Z,28.1930,-82.7890,16.49,1111122 
COMPS,ioos:station:USF.COMPS:ANC:1,2011-12-01T23:36:00Z,28.1930,-82.7890,16.48,1111122 
COMPS,ioos:station:USF.COMPS:ANC:1,2011-12-01T23:42:00Z,28.1930,-82.7890,16.48,1111122 
COMPS,ioos:station:USF.COMPS:ANC:1,2011-12-01T23:48:00Z,28.1930,-82.7890,16.5,1111122 
COMPS,ioos:station:USF.COMPS:ANC:1,2011-12-01T23:54:00Z,28.1930,-82.7890,16.44,1111122 
COMPS,ioos:station:USF.COMPS:ANC:1,2011-12-02T00:00:00Z,28.1930,-82.7890,16.4,1111122 
COMPS,ioos:station:USF.COMPS:ANC:1,2011-12-02T00:06:00Z,28.1930,-82.7890,16.31,1111122 
COMPS,ioos:station:USF.COMPS:ANC:1,2011-12-02T00:12:00Z,28.1930,-82.7890,16.21,1111122 
COMPS,ioos:station:USF.COMPS:ANC:1,2011-12-02T00:18:00Z,28.1930,-82.7890,16.05,1111122 
COMPS,ioos:station:USF.COMPS:ANC:1,2011-12-02T00:24:00Z,28.1930,-82.7890,15.9,1111122 
COMPS,ioos:station:USF.COMPS:ANC:1,2011-12-02T00:30:00Z,28.1930,-82.7890,15.77,1111122 
COMPS,ioos:station:USF.COMPS:ANC:1,2011-12-02T00:36:00Z,28.1930,-82.7890,15.68,1111122 
COMPS,ioos:station:USF.COMPS:ANC:1,2011-12-02T00:42:00Z,28.1930,-82.7890,15.8,1111122 
COMPS,ioos:station:USF.COMPS:ANC:1,2011-12-02T00:48:00Z,28.1930,-82.7890,15.74,1111122 
COMPS,ioos:station:USF.COMPS:ANC:1,2011-12-02T00:54:00Z,28.1930,-82.7890,15.94,1111122 
COMPS,ioos:station:USF.COMPS:ANC:1,2011-12-02T01:00:00Z,28.1930,-82.7890,15.9,1111122 
COMPS,ioos:station:USF.COMPS:ANC:1,2011-12-02T01:06:00Z,28.1930,-82.7890,16.06,1111122 
COMPS,ioos:station:USF.COMPS:ANC:1,2011-12-02T01:12:00Z,28.1930,-82.7890,15.95,1111122 
COMPS,ioos:station:USF.COMPS:ANC:1,2011-12-02T01:18:00Z,28.1930,-82.7890,15.85,1111122 
COMPS,ioos:station:USF.COMPS:ANC:1,2011-12-02T01:24:00Z,28.1930,-82.7890,15.81,1111122 
COMPS,ioos:station:USF.COMPS:ANC:1,2011-12-02T01:30:00Z,28.1930,-82.7890,15.81,1111122 
COMPS,ioos:station:USF.COMPS:ANC:1,2011-12-02T01:36:00Z,28.1930,-82.7890,15.76,1111122 
COMPS,ioos:station:USF.COMPS:ANC:1,2011-12-02T01:42:00Z,28.1930,-82.7890,15.67,1111122 
COMPS,ioos:station:USF.COMPS:ANC:1,2011-12-02T01:48:00Z,28.1930,-82.7890,15.67,1111122 
COMPS,ioos:station:USF.COMPS:ANC:1,2011-12-02T01:54:00Z,28.1930,-82.7890,15.68,1111122 
COMPS,ioos:station:USF.COMPS:ANC:1,2011-12-02T02:00:00Z,28.1930,-82.7890,15.7,1111122 
COMPS,ioos:station:USF.COMPS:ANC:1,2011-12-02T02:06:00Z,28.1930,-82.7890,15.72,1111122 
COMPS,ioos:station:USF.COMPS:ANC:1,2011-12-02T02:12:00Z,28.1930,-82.7890,15.69,1111122 
COMPS,ioos:station:USF.COMPS:ANC:1,2011-12-02T02:18:00Z,28.1930,-82.7890,15.67,1111122 
COMPS,ioos:station:USF.COMPS:ANC:1,2011-12-02T02:24:00Z,28.1930,-82.7890,15.67,1111122 
COMPS,ioos:station:USF.COMPS:ANC:1,2011-12-02T02:30:00Z,28.1930,-82.7890,15.57,1111122 
COMPS,ioos:station:USF.COMPS:ANC:1,2011-12-02T02:36:00Z,28.1930,-82.7890,15.52,1111122 
COMPS,ioos:station:USF.COMPS:ANC:1,2011-12-02T02:42:00Z,28.1930,-82.7890,15.39,1111122 
COMPS,ioos:station:USF.COMPS:ANC:1,2011-12-02T02:48:00Z,28.1930,-82.7890,15.27,1111122 
COMPS,ioos:station:USF.COMPS:ANC:1,2011-12-02T02:54:00Z,28.1930,-82.7890,15.15,1111122 
COMPS,ioos:station:USF.COMPS:ANC:1,2011-12-02T03:00:00Z,28.1930,-82.7890,14.99,1111122 
COMPS,ioos:station:USF.COMPS:ANC:1,2011-12-02T03:06:00Z,28.1930,-82.7890,14.86,1111122 
COMPS,ioos:station:USF.COMPS:ANC:1,2011-12-02T03:12:00Z,28.1930,-82.7890,14.83,1111122 
COMPS,ioos:station:USF.COMPS:ANC:1,2011-12-02T03:18:00Z,28.1930,-82.7890,14.81,1111122 
COMPS,ioos:station:USF.COMPS:ANC:1,2011-12-02T03:24:00Z,28.1930,-82.7890,14.64,1111122 
COMPS,ioos:station:USF.COMPS:ANC:1,2011-12-02T03:30:00Z,28.1930,-82.7890,14.57,1111122 
COMPS,ioos:station:USF.COMPS:ANC:1,2011-12-02T03:36:00Z,28.1930,-82.7890,14.46,1111122 
COMPS,ioos:station:USF.COMPS:ANC:1,2011-12-02T03:42:00Z,28.1930,-82.7890,14.39,1111122 
COMPS,ioos:station:USF.COMPS:ANC:1,2011-12-02T03:48:00Z,28.1930,-82.7890,14.32,1111122 
COMPS,ioos:station:USF.COMPS:ANC:1,2011-12-02T03:54:00Z,28.1930,-82.7890,14.34,1111122 
COMPS,ioos:station:USF.COMPS:ANC:1,2011-12-02T04:00:00Z,28.1930,-82.7890,14.3,1111122 
COMPS,ioos:station:USF.COMPS:ANC:1,2011-12-02T04:06:00Z,28.1930,-82.7890,14.4,1111122 